Race Coverage Navigation

TS # 19 / La Veta, CO  2019

 


TS STATS
TS Distance 58.31 
Total Distance 1135.59 
Miles To Go 1934.69 
TS Climbing 1086 
Total Climbing
TS  Elevation
TS  Net Elevation 1713 
Map Filename Open Map 
Directions Filename  
Latitude 37.51 
Longitude -105.01 
Google Map  TimeStation Map 


TS Arrival Data
Arr Ord  #/Name Arrival DT TS Dst Avg This TS Avg Overall
 1 377 - Christoph Strasser  06/14/2019 8:38 58.31  15.41  17.75 
 2 279 - Marko Baloh  06/14/2019 19:11 58.31  16.43  15.23 
 3 288 - Dave Haase  06/14/2019 21:47 58.31  18.81  14.72 
 4 609 - Jakob Olsen  06/14/2019 21:55 58.31  22.28  14.64 
 5 617 - SOLO.kiwi (Craig Harper)  06/15/2019 0:20 58.31  13.83  14.18 
 6 529 - Isa Pulver  06/15/2019 0:31 58.31  13.51  14.12 
 7 349 - Mark Pattinson  06/15/2019 4:27 58.31  7.44  13.54 
 8 612 - Markus K. Brandl  06/15/2019 5:56 58.31  9.11  13.26 
 9 329 - Peter Oyler  06/15/2019 8:02 58.31  13.3  12.99 
 10 622 - Thomas Odom-Team Kyle Pease Foundation  06/15/2019 9:46 58.31  10.97  12.67 
 11 416 - Leah Goldstein  06/15/2019 11:20 58.31  12.77  12.45 
 12 623 - Ultra Paka Racing Team (Daniel Polman)  06/15/2019 11:27 58.31  15.34  12.44 
 13 603 - Alan Bradley  06/15/2019 13:07 58.31  13.94  12.25 
 14 442 - Joe Barr  06/15/2019 13:41 58.31  9.61  12.19 
 15 568 - Alexandra Meixner  06/15/2019 14:54 58.31  12.91  11.97 
 16 615 - Philipp Amhof  06/15/2019 15:04 58.31  8.66  11.98 
 17 604 - Chieko Ozawa  06/15/2019 15:17 58.31  19.01  11.92 
 18 367 - Daniela Genovesi  06/15/2019 15:45 58.31  12.11  11.87 
 19 559 - Team Martin RAAM 2019 (Martin Bergmeister)  06/15/2019 19:21 58.31  11.21  11.48 
 20 411 - Geoff Brunner  06/15/2019 19:57 58.31  11.18  11.42 
 21 610 - Kabir Rachure  06/15/2019 22:21 58.31  10.11  11.13 
 22 611 - Marcelo Soares " MIXIRICA "  06/15/2019 22:31 58.31  9.21  11.11 
 23 510 - John C. Tarlton  06/15/2019 23:42 58.31  12.54  11 
 24 399 - Valerio Zamboni  06/16/2019 3:34 58.31  11.04  10.61 
 25 539 - Kari Rouvinen  06/16/2019 4:08 58.31  6.98  10.55 
 26 603 - Alan Bradley  06/16/2019 8:27 58.31  13.94  12.25 
 27 424 - Team i RON man Veterans supporting Veterans  06/16/2019 8:46 58.31  6.82  10.12 
 28 608 - Elin Starup  06/16/2019 9:27 58.31  9.18  10.01 
 29 527 - TALABARDON (Herve Talabardon)  06/16/2019 10:10 58.31  12.58  9.99 
 30 618 - GREGORY ROBINSON  06/16/2019 13:31 58.31  11.86  9.68 
 31 607 - Sabine Bird (Team Bean)  06/16/2019 15:32 58.31  11.29  9.5 
 32 605 - Christian Echavarria  06/16/2019 18:39 58.31  8.86  9.29 
 33 161 - Seana Hogan  06/16/2019 19:34 58.31  15.98  9.2 
 34 T411 - team alpha - tischlerei groemmer  06/17/2019 18:26 58.31  23.02  22.23 
 35 T800 - Backstedt Racing Project 14  06/17/2019 18:55 58.31  23.96  22.08 
 36 T401 - Data Techniques powered by Networks Centre  06/17/2019 20:48 58.31  19.44  21.18 
 37 T404 - Gentlemen of speed  06/17/2019 21:35 58.31  20.34  20.89 
 38 T201 - EAT WELL  06/18/2019 0:20 58.31  17.85  19.81 
 39 T805 - Team Oceanside  06/18/2019 1:10 58.31  23.96  19.72 
 40 T407 - Julian Becker   06/18/2019 1:50 58.31  18.71  19.4 
 41 T807 - Team ZOE International  06/18/2019 2:20 58.31  17.85  19.33 
 42 T412 - Team Aspect  06/18/2019 2:56 58.31  18.41  19.06 
 43 T802 - Scorchers  06/18/2019 3:26 58.31  21.73  18.95 
 44 T416 - Team Rotary Raams Polio  06/18/2019 3:56 58.31  18.81  18.77 
 45 T408 - Radeln-fuer-Kinder (Cycling-for-Kids)  06/18/2019 4:28 58.31  19.12  18.57 
 46 T804 - Team FSHD Skyland Trail  06/18/2019 4:40 58.31  19.99  18.58 
 47 T400 - Cantastic4  06/18/2019 5:06 58.31  18.03  18.34 
 48 T808 - Antonia's Friends 2019  06/18/2019 5:12 58.31  17.67  18.44 
 49 T406 - Operation Walk Midwest  06/18/2019 5:13 58.31  18.41  18.33 
 50 T418 - The Opportunists  06/18/2019 7:15 58.31  17.32  17.8 
 51 T414 - Brazil Nuts  06/18/2019 9:25 58.31  18.51  17.2 
 52 T202 - Integra Medical - BAA Racing  06/18/2019 9:28 58.31  17.41  17.09 
 53 T403 - EKJ Denmark  06/18/2019 9:43 58.31  16.43  17.08 
 54 T410 - Soap-Aid  06/18/2019 9:58 58.31  15.15  17.04 
 55 T803 - Team EndoPark  06/18/2019 10:25 58.31  16.66  16.98 
 56 T206 - Project Linear Acceleration  06/18/2019 11:24 58.31  17.85  16.63 
 57 T415 - TEAM FIRE VELO 935  06/18/2019 12:01 58.31  17.85  16.55 
 58 T405 - High Rollers  06/18/2019 12:02 58.31  13.1  16.51 
 59 T204 - Lucan CRC  06/18/2019 12:37 58.31  17.58  16.33 
 60 T413 - TEAM BRASIL - SKIPPER  06/18/2019 14:28 58.31  17.23  15.98 
 61 T402 - EA/WFP RAAM Team  06/18/2019 15:01 58.31  17.49  15.81 
 62 T806 - Team SuperMarrow  06/18/2019 15:41 58.31  19.12  15.75 
 63 T801 - Mind Over Matter  06/18/2019 16:30 58.31  18.71  15.56 
 64 T417 - Team4RAAM 2019 powered by TGW Living Logistics  06/18/2019 18:22 58.31  16.74  15.16 
 65 T208 - Team Machine  06/18/2019 19:12 58.31  15.02  14.93 
 66 T200 - AIR RELAX GoPro TEAM BRASIL  06/18/2019 19:19 58.31  21.87  14.88 
 67 T207 - Team Life Time  06/18/2019 19:50 58.31  18.91  14.8 
 68 T409 - Serpentine Golden Girls  06/18/2019 22:26 58.31  17.49  14.35 
 69 T203 - JPsDuo  06/19/2019 0:43 58.31  16.2  13.91 
 70 T210 - Bike Wine Team  06/19/2019 5:06 58.31  14.4  13.21 
 71 T205 - Prevent Breast Cancer powered by Endomag  06/19/2019 5:48 58.31  13.3  13.1